Tracking 29030 objects as of 25-Jun-2024
HD Live streaming from Space Station
objects crossing your sky now

ONEWEB-0320

Track ONEWEB-0320 now!
10-day predictions
ONEWEB-0320 is classified as:


NORAD ID: 49190
Int'l Code: 2021-083E
Perigee: 1,195.3 km
Apogee: 1,198.4 km
Inclination: 87.9 °
Period: 109.2 minutes
Semi major axis: 7567 km
RCS: Unknown
Launch date: September 14, 2021
Source: United Kingdom (UK)
Launch site: TYURATAM MISSILE AND SPACE COMPLEX (TTMTR)
Your satellite tracking list
Your tracking list is empty




NASA's NSSDC Master Catalog

Two Line Element Set (TLE):
1 49190U 21083E   24176.88161425  .00000019  00000-0  16315-4 0  9992
2 49190  87.9149 119.2586 0002048  79.7010 280.4352 13.18684717134786
Source of the keplerian elements: AFSPC